Weather History for Jacksonville, FL

Change the Weather History Date:

Tuesday, July 30, 2013

  Actual Average Record
Temperature  
Mean Temperature 84 °F 82 °F  
Max Temperature 93 °F 92 °F 102 °F (2010)
Min Temperature 75 °F 73 °F 68 °F (1894)
Degree Days  
Heating Degree Days 0 0  
Month to date heating degree days 0 0  
Since 1 June heating degree days 0 0  
Since 1 July heating degree days 0 0  
Cooling Degree Days 19 18  
Month to date cooling degree days 473 522  
Year to date cooling degree days 1382 1455  
Since 1 June cooling degree days 946 971  
Growing Degree Days 34 (Base 50)    
Moisture  
Dew Point 75 °F    
Average Humidity 75    
Maximum Humidity 97    
Minimum Humidity 52    
Precipitation  
Precipitation 0.65 in 0.20 in 1.74 in (1974)
Month to date precipitation 8.53 6.34  
Year to date precipitation 30.29 28.35  
Snow  
Snow 0.00 in 0.00 in 0.00 in (2002)
Month to date snowfall 0.0 0.0  
Since 1 June snowfall 0.0 0.0  
Since 1 July snowfall 0.0 0.0  
Snow Depth 0.00 in    
Sea Level Pressure  
Sea Level Pressure 30.14 in    
Wind  
Wind Speed 3 mph (WNW)    
Max Wind Speed 18 mph    
Max Gust Speed 22 mph    
Visibility 8 miles    
Events Rain , Thunderstorm    
T = Trace of Precipitation, MM = Missing Value Source: NWS Daily Summary

Daily Weather History Graph

Daily Weather History Graph

Search for Another Location

Airport:

Trip Planner

Search our weather history database for the weather conditions in past years. The results will help you decide how hot, cold, wet, or windy it might be!

Date:

Astronomy

Jul. 30, 2013 Rise Set
Actual Time 6:43 AM EDT 8:22 PM EDT
Civil Twilight 6:17 AM EDT 8:48 PM EDT
Nautical Twilight 5:46 AM EDT 9:19 PM EDT
Astronomical Twilight 5:13 AM EDT 9:52 PM EDT
Moon 12:57 AM EDT (7/30) 2:42 PM EDT (7/30)
Length of Visible Light 14h 30m
Length of Day
13h 38m
Last Quarter, 41% of the Moon is Illuminated
Jul 30
Last Quarter
Aug 6
New
Aug 14
First Quarter
Aug 20
Full
Aug 28
Last Quarter

Hourly Weather History & Observations

Time (EDT) Temp. Heat Index Dew Point Humidity Pressure Visibility Wind Dir Wind Speed Gust Speed Precip Events Conditions
12:35 AM 78.8 °F - 73.4 °F 83% 30.15 in 10.0 mi Calm Calm - N/A   Mostly Cloudy
12:56 AM 78.1 °F - 73.9 °F 87% 30.16 in 10.0 mi Calm Calm - N/A   Mostly Cloudy
1:56 AM 78.1 °F - 73.9 °F 87% 30.14 in 10.0 mi Calm Calm - N/A   Overcast
2:56 AM 77.0 °F - 73.9 °F 90% 30.14 in 10.0 mi Calm Calm - N/A   Overcast
3:56 AM 75.9 °F - 73.9 °F 94% 30.13 in 10.0 mi WSW 3.5 mph - N/A   Mostly Cloudy
4:56 AM 75.9 °F - 73.0 °F 91% 30.12 in 10.0 mi Calm Calm - N/A   Mostly Cloudy
5:56 AM 75.0 °F - 73.0 °F 94% 30.13 in 9.0 mi Calm Calm - N/A   Mostly Cloudy
6:56 AM 75.9 °F - 73.0 °F 91% 30.15 in 8.0 mi Calm Calm - N/A   Mostly Cloudy
7:56 AM 77.0 °F - 75.0 °F 94% 30.17 in 9.0 mi Calm Calm - N/A   Partly Cloudy
8:56 AM 82.0 °F 88.6 °F 75.0 °F 79% 30.18 in 10.0 mi NNW 3.5 mph - N/A   Partly Cloudy
9:56 AM 84.9 °F 93.3 °F 75.0 °F 72% 30.18 in 10.0 mi WNW 5.8 mph - N/A   Scattered Clouds
10:56 AM 87.1 °F 96.3 °F 75.0 °F 67% 30.17 in 10.0 mi NW 4.6 mph - N/A   Mostly Cloudy
11:56 AM 90.0 °F 96.9 °F 72.0 °F 55% 30.17 in 10.0 mi SW 4.6 mph - N/A   Mostly Cloudy
12:56 PM 91.0 °F 99.3 °F 73.0 °F 55% 30.16 in 10.0 mi Calm Calm - N/A   Mostly Cloudy
1:56 PM 93.0 °F 101.9 °F 73.0 °F 52% 30.14 in 10.0 mi NW 5.8 mph - N/A   Mostly Cloudy
2:56 PM 87.1 °F 96.3 °F 75.0 °F 67% 30.12 in 10.0 mi SE 12.7 mph - 0.00 in Rain Light Rain
3:10 PM 82.4 °F 89.5 °F 75.2 °F 79% 30.12 in 6.0 mi SE 11.5 mph - 0.01 in Rain , Thunderstorm Light Thunderstorms and Rain
3:29 PM 80.6 °F 86.2 °F 75.2 °F 84% 30.13 in 4.0 mi NNE 12.7 mph 16.1 mph 0.16 in Rain , Thunderstorm Light Thunderstorms and Rain
3:37 PM 78.8 °F - 75.2 °F 89% 30.13 in 1.5 mi NNE 16.1 mph 21.9 mph 0.30 in Rain , Thunderstorm Thunderstorms and Rain
3:51 PM 78.8 °F - 75.2 °F 89% 30.13 in 3.0 mi North 10.4 mph - 0.45 in Rain , Thunderstorm Heavy Thunderstorms and Rain
3:56 PM 77.0 °F - 73.9 °F 90% 30.13 in 3.0 mi North 10.4 mph - 0.50 in Rain , Thunderstorm Heavy Thunderstorms and Rain
4:15 PM 78.8 °F - 75.2 °F 89% 30.12 in 5.0 mi West 3.5 mph - 0.14 in Rain , Thunderstorm Thunderstorms and Rain
4:56 PM 79.0 °F - 75.9 °F 90% 30.12 in 9.0 mi South 4.6 mph - 0.15 in Thunderstorm Thunderstorm
5:07 PM 78.8 °F - 77.0 °F 94% 30.11 in 9.0 mi South 4.6 mph - N/A   Mostly Cloudy
5:56 PM 79.0 °F - 77.0 °F 94% 30.11 in 10.0 mi SSW 4.6 mph - N/A   Mostly Cloudy
6:56 PM 81.0 °F 87.9 °F 77.0 °F 88% 30.12 in 10.0 mi Calm Calm - N/A   Mostly Cloudy
7:56 PM 80.1 °F 85.8 °F 77.0 °F 90% 30.12 in 8.0 mi Calm Calm - N/A   Mostly Cloudy
8:56 PM 79.0 °F - 77.0 °F 94% 30.13 in 9.0 mi NNE 3.5 mph - N/A   Mostly Cloudy
9:56 PM 79.0 °F - 77.0 °F 94% 30.14 in 10.0 mi Calm Calm - N/A   Mostly Cloudy
10:56 PM 77.0 °F - 75.9 °F 96% 30.15 in 6.0 mi Calm Calm - N/A   Mostly Cloudy
11:56 PM 77.0 °F - 75.9 °F 96% 30.14 in 7.0 mi Calm Calm - N/A   Mostly Cloudy